| time (UTC) | temp F | wind direction | speed MPH | gust MPH | rain 1hr in | rain 24hr in | rain mn in | humidity % | barometer mb |
| 20260831212235 | 65 | 331 | 3.0 | 8.0 | 0.00 | 0.00 | 0.00 | 75 | 1012.6 |
| 20260831211735 | 65 | 340 | 5.0 | 9.0 | 0.00 | 0.00 | 0.00 | 75 | 1012.6 |
| 20260831211235 | 64 | 293 | 4.0 | 12.0 | 0.00 | 0.00 | 0.00 | 75 | 1012.7 |
| 20260831210734 | 64 | 331 | 4.0 | 12.0 | 0.00 | 0.00 | 0.00 | 75 | 1012.8 |
| 20260831210235 | 64 | 305 | 3.0 | 11.0 | 0.00 | 0.00 | 0.00 | 75 | 1012.7 |
| 20260831205735 | 64 | 299 | 3.0 | 11.0 | 0.00 | 0.00 | 0.00 | 74 | 1012.9 |
| 20260831204734 | 64 | 276 | 3.0 | 10.0 | 0.00 | 0.00 | 0.00 | 75 | 1012.9 |
| 20260831204234 | 64 | 318 | 3.0 | 10.0 | 0.00 | 0.00 | 0.00 | 75 | 1013.0 |
| 20260831203734 | 64 | 18 | 5.0 | 10.0 | 0.00 | 0.00 | 0.00 | 76 | 1013.0 |
| 20260831203234 | 63 | 288 | 1.0 | 8.0 | 0.00 | 0.00 | 0.00 | 76 | 1013.1 |
| 20260831202734 | 63 | 298 | 5.0 | 8.0 | 0.00 | 0.00 | 0.00 | 77 | 1013.2 |
| 20260831202234 | 63 | 274 | 6.0 | 8.0 | 0.00 | 0.00 | 0.00 | 76 | 1013.2 |
| 20260831201733 | 63 | 304 | 5.0 | 8.0 | 0.00 | 0.00 | 0.00 | 76 | 1013.3 |
| 20260831200734 | 63 | 254 | 1.0 | 8.0 | 0.00 | 0.00 | 0.00 | 77 | 1013.4 |
| 20260831200234 | 63 | 10 | 2.0 | 13.0 | 0.00 | 0.00 | 0.00 | 77 | 1013.5 |
| 20260831195733 | 63 | 331 | 5.0 | 13.0 | 0.00 | 0.00 | 0.00 | 77 | 1013.4 |
| 20260831194733 | 63 | 253 | 2.0 | 9.0 | 0.00 | 0.00 | 0.00 | 78 | 1013.4 |
| 20260831193733 | 63 | 23 | 6.0 | 9.0 | 0.00 | 0.00 | 0.00 | 78 | 1013.6 |
| 20260831192732 | 62 | 359 | 7.0 | 8.0 | 0.00 | 0.00 | 0.00 | 79 | 1013.7 |
| 20260831192233 | 61 | 360 | 5.0 | 8.0 | 0.00 | 0.00 | 0.00 | 80 | 1013.7 |
| 20260831191732 | 61 | 300 | 4.0 | 9.0 | 0.00 | 0.00 | 0.00 | 80 | 1013.8 |
| 20260831191303 | 61 | 271 | 4.0 | 9.0 | 0.00 | 0.00 | 0.00 | 80 | 1014.0 |
| 20260831190732 | 61 | 306 | 4.0 | 8.0 | 0.00 | 0.00 | 0.00 | 82 | 1014.0 |
| 20260831185732 | 60 | 288 | 5.0 | 11.0 | 0.00 | 0.00 | 0.00 | 83 | 1014.1 |
| 20260831185232 | 60 | 230 | 3.0 | 10.0 | 0.00 | 0.00 | 0.00 | 84 | 1014.1 |
| 20260831184731 | 60 | 288 | 3.0 | 9.0 | 0.00 | 0.00 | 0.00 | 84 | 1014.2 |
| 20260831184232 | 60 | 295 | 7.0 | 8.0 | 0.00 | 0.00 | 0.00 | 85 | 1014.2 |
| 20260831183732 | 60 | 274 | 4.0 | 8.0 | 0.00 | 0.00 | 0.00 | 85 | 1014.2 |
| 20260831182231 | 59 | 254 | 3.0 | 8.0 | 0.00 | 0.00 | 0.00 | 86 | 1014.4 |
| 20260831181731 | 59 | 269 | 3.0 | 9.0 | 0.00 | 0.00 | 0.00 | 86 | 1014.5 |
| 20260831181231 | 59 | 309 | 3.0 | 9.0 | 0.00 | 0.00 | 0.00 | 87 | 1014.5 |
| 20260831180731 | 59 | 328 | 4.0 | 10.0 | 0.00 | 0.00 | 0.00 | 86 | 1014.5 |
| 20260831180301 | 59 | 319 | 3.0 | 10.0 | 0.00 | 0.00 | 0.00 | 86 | 1014.5 |
| 20260831175730 | 59 | 260 | 2.0 | 9.0 | 0.00 | 0.00 | 0.00 | 87 | 1014.6 |
| 20260831175231 | 59 | 318 | 3.0 | 9.0 | 0.00 | 0.00 | 0.00 | 87 | 1014.6 |
| 20260831174730 | 59 | 326 | 5.0 | 9.0 | 0.00 | 0.00 | 0.00 | 86 | 1014.6 |
| 20260831174231 | 59 | 287 | 2.0 | 7.0 | 0.00 | 0.00 | 0.00 | 87 | 1014.7 |
| 20260831173800 | 59 | 292 | 3.0 | 8.0 | 0.00 | 0.00 | 0.00 | 87 | 1014.7 |
| 20260831173230 | 59 | 300 | 2.0 | 8.0 | 0.00 | 0.00 | 0.00 | 87 | 1014.8 |
| 20260831172730 | 58 | 10 | 4.0 | 9.0 | 0.00 | 0.00 | 0.00 | 87 | 1014.9 |
| 20260831172230 | 59 | 348 | 2.0 | 9.0 | 0.00 | 0.00 | 0.00 | 86 | 1014.9 |
| 20260831171729 | 59 | 328 | 3.0 | 8.0 | 0.00 | 0.00 | 0.00 | 86 | 1014.8 |
| 20260831171230 | 59 | 304 | 3.0 | 7.0 | 0.00 | 0.00 | 0.00 | 86 | 1014.9 |
| 20260831170759 | 59 | 317 | 5.0 | 7.0 | 0.00 | 0.00 | 0.00 | 85 | 1014.9 |
| 20260831170300 | 59 | 323 | 2.0 | 8.0 | 0.00 | 0.00 | 0.00 | 85 | 1014.9 |
| 20260831165759 | 60 | 265 | 0.0 | 8.0 | 0.00 | 0.00 | 0.00 | 85 | 1014.9 |
| 20260831165259 | 59 | 250 | 0.0 | 5.0 | 0.00 | 0.00 | 0.00 | 86 | 1014.9 |
| 20260831164759 | 59 | 301 | 0.0 | 5.0 | 0.00 | 0.00 | 0.00 | 87 | 1014.9 |
| 20260831164259 | 58 | 282 | 2.0 | 7.0 | 0.00 | 0.00 | 0.00 | 88 | 1014.9 |
| 20260831163759 | 58 | 276 | 3.0 | 7.0 | 0.00 | 0.00 | 0.00 | 88 | 1015.0 |
| 20260831163259 | 58 | 326 | 3.0 | 6.0 | 0.00 | 0.00 | 0.00 | 88 | 1015.0 |
| 20260831161258 | 57 | 289 | 5.0 | 6.0 | 0.00 | 0.00 | 0.00 | 90 | 1015.1 |
| 20260831160759 | 57 | 309 | 1.0 | 6.0 | 0.00 | 0.00 | 0.00 | 90 | 1015.2 |
| 20260831155758 | 57 | 249 | 1.0 | 7.0 | 0.00 | 0.00 | 0.00 | 91 | 1015.2 |
| 20260831155258 | 57 | 288 | 3.0 | 7.0 | 0.00 | 0.00 | 0.00 | 91 | 1015.2 |
| 20260831154758 | 56 | 300 | 2.0 | 7.0 | 0.00 | 0.00 | 0.00 | 92 | 1015.3 |
| 20260831154258 | 56 | 332 | 3.0 | 6.0 | 0.00 | 0.00 | 0.00 | 92 | 1015.3 |
| 20260831153257 | 56 | 288 | 2.0 | 6.0 | 0.00 | 0.00 | 0.00 | 94 | 1015.4 |
| 20260831152227 | 55 | 280 | 2.0 | 7.0 | 0.00 | 0.00 | 0.00 | 95 | 1015.3 |
| 20260831150257 | 55 | 283 | 3.0 | 6.0 | 0.00 | 0.00 | 0.00 | 96 | 1015.3 |
| 20260831145757 | 54 | 248 | 1.0 | 5.0 | 0.00 | 0.00 | 0.00 | 96 | 1015.3 |
| 20260831144757 | 54 | 292 | 1.0 | 7.0 | 0.00 | 0.00 | 0.00 | 97 | 1015.4 |
| 20260831144257 | 54 | 290 | 4.0 | 7.0 | 0.00 | 0.00 | 0.00 | 97 | 1015.4 |
| 20260831143756 | 54 | 278 | 6.0 | 6.0 | 0.00 | 0.00 | 0.00 | 97 | 1015.3 |
| 20260831143257 | 54 | 289 | 3.0 | 6.0 | 0.00 | 0.00 | 0.00 | 97 | 1015.3 |
| 20260831142256 | 54 | 285 | 5.0 | 7.0 | 0.00 | 0.00 | 0.00 | 97 | 1015.4 |
| 20260831141756 | 53 | 286 | 6.0 | 7.0 | 0.00 | 0.00 | 0.00 | 97 | 1015.3 |
| 20260831141256 | 53 | 269 | 4.0 | 7.0 | 0.00 | 0.00 | 0.00 | 98 | 1015.3 |
| 20260831140756 | 53 | 252 | 3.0 | 7.0 | 0.00 | 0.00 | 0.00 | 98 | 1015.3 |
| 20260831140256 | 53 | 275 | 5.0 | 7.0 | 0.00 | 0.00 | 0.00 | 98 | 1015.2 |
| 20260831135756 | 53 | 282 | 4.0 | 7.0 | 0.00 | 0.00 | 0.00 | 98 | 1015.1 |
| 20260831135255 | 53 | 292 | 5.0 | 8.0 | 0.00 | 0.00 | 0.00 | 98 | 1015.2 |
| 20260831134755 | 53 | 257 | 5.0 | 8.0 | 0.00 | 0.00 | 0.00 | 98 | 1015.2 |
| 20260831134256 | 53 | 274 | 4.0 | 8.0 | 0.00 | 0.00 | 0.00 | 98 | 1015.2 |
| 20260831133255 | 53 | 278 | 5.0 | 9.0 | 0.00 | 0.00 | 0.00 | 98 | 1015.1 |
| 20260831132755 | 53 | 258 | 8.0 | 8.0 | 0.00 | 0.00 | 0.00 | 98 | 1015.1 |
| 20260831132255 | 53 | 274 | 5.0 | 8.0 | 0.00 | 0.00 | 0.00 | 98 | 1015.2 |
| 20260831131754 | 53 | 261 | 4.0 | 8.0 | 0.00 | 0.00 | 0.00 | 98 | 1015.2 |
| 20260831131255 | 53 | 276 | 3.0 | 8.0 | 0.00 | 0.00 | 0.00 | 98 | 1015.2 |
| 20260831130754 | 53 | 278 | 4.0 | 10.0 | 0.00 | 0.00 | 0.00 | 98 | 1015.3 |
| 20260831125754 | 53 | 271 | 3.0 | 8.0 | 0.00 | 0.00 | 0.00 | 97 | 1015.4 |
| 20260831124754 | 53 | 285 | 5.0 | 10.0 | 0.00 | 0.00 | 0.00 | 97 | 1015.5 |
| 20260831124254 | 53 | 281 | 4.0 | 10.0 | 0.00 | 0.00 | 0.00 | 97 | 1015.5 |
| 20260831123753 | 53 | 257 | 4.0 | 8.0 | 0.00 | 0.00 | 0.00 | 97 | 1015.5 |
| 20260831123253 | 53 | 252 | 1.0 | 8.0 | 0.00 | 0.00 | 0.00 | 97 | 1015.6 |
| 20260831122753 | 53 | 258 | 4.0 | 8.0 | 0.00 | 0.00 | 0.00 | 97 | 1015.6 |
| 20260831122253 | 53 | 276 | 5.0 | 9.0 | 0.00 | 0.00 | 0.00 | 97 | 1015.6 |
| 20260831121753 | 53 | 252 | 5.0 | 9.0 | 0.00 | 0.00 | 0.00 | 97 | 1015.6 |
| 20260831121253 | 53 | 257 | 2.0 | 7.0 | 0.00 | 0.00 | 0.00 | 97 | 1015.7 |
| 20260831120753 | 53 | 265 | 3.0 | 6.0 | 0.00 | 0.00 | 0.00 | 97 | 1015.7 |
| 20260831120253 | 53 | 273 | 1.0 | 7.0 | 0.00 | 0.00 | 0.00 | 97 | 1015.9 |
| 20260831115752 | 53 | 281 | 3.0 | 7.0 | 0.00 | 0.00 | 0.00 | 97 | 1015.9 |
| 20260831115253 | 53 | 246 | 3.0 | 7.0 | 0.00 | 0.00 | 0.00 | 97 | 1016.0 |
| 20260831114752 | 53 | 272 | 7.0 | 7.0 | 0.00 | 0.00 | 0.00 | 97 | 1015.9 |
| 20260831114252 | 53 | 273 | 6.0 | 7.0 | 0.00 | 0.00 | 0.00 | 97 | 1016.0 |
| 20260831113752 | 53 | 265 | 2.0 | 7.0 | 0.00 | 0.00 | 0.00 | 97 | 1016.1 |
| 20260831113252 | 53 | 285 | 5.0 | 7.0 | 0.00 | 0.00 | 0.00 | 97 | 1016.1 |
| 20260831112252 | 53 | 266 | 4.0 | 9.0 | 0.00 | 0.00 | 0.00 | 97 | 1016.2 |
| 20260831111752 | 53 | 276 | 5.0 | 9.0 | 0.00 | 0.00 | 0.00 | 97 | 1016.1 |
| 20260831111251 | 53 | 268 | 3.0 | 9.0 | 0.00 | 0.00 | 0.00 | 97 | 1016.1 |
| 20260831110751 | 53 | 269 | 7.0 | 10.0 | 0.00 | 0.00 | 0.00 | 96 | 1016.2 |
| 20260831110252 | 54 | 267 | 2.0 | 10.0 | 0.00 | 0.00 | 0.00 | 96 | 1016.2 |
| 20260831105751 | 54 | 280 | 4.0 | 9.0 | 0.00 | 0.00 | 0.00 | 96 | 1016.3 |
| 20260831105252 | 54 | 263 | 7.0 | 9.0 | 0.00 | 0.00 | 0.00 | 96 | 1016.4 |
| 20260831104751 | 54 | 283 | 6.0 | 9.0 | 0.00 | 0.00 | 0.00 | 96 | 1016.4 |
| 20260831104251 | 54 | 271 | 4.0 | 8.0 | 0.00 | 0.00 | 0.00 | 96 | 1016.4 |
| 20260831103751 | 54 | 300 | 4.0 | 7.0 | 0.00 | 0.00 | 0.00 | 96 | 1016.4 |
| 20260831103251 | 54 | 291 | 6.0 | 8.0 | 0.00 | 0.00 | 0.00 | 96 | 1016.4 |
| 20260831101251 | 55 | 274 | 3.0 | 9.0 | 0.00 | 0.00 | 0.00 | 96 | 1016.6 |
| 20260831100750 | 55 | 273 | 6.0 | 9.0 | 0.00 | 0.00 | 0.00 | 96 | 1016.6 |
| 20260831095750 | 55 | 274 | 3.0 | 7.0 | 0.00 | 0.00 | 0.00 | 96 | 1016.7 |
| 20260831095250 | 55 | 295 | 4.0 | 6.0 | 0.00 | 0.00 | 0.00 | 96 | 1016.7 |
| 20260831093750 | 55 | 310 | 2.0 | 7.0 | 0.00 | 0.00 | 0.00 | 95 | 1016.9 |
| 20260831093249 | 55 | 271 | 1.0 | 8.0 | 0.00 | 0.00 | 0.00 | 95 | 1017.0 |
| 20260831092749 | 55 | 266 | 3.0 | 9.0 | 0.00 | 0.00 | 0.00 | 95 | 1017.1 |
| 20260831091749 | 54 | 288 | 2.0 | 8.0 | 0.00 | 0.00 | 0.00 | 95 | 1017.1 |
| 20260831091249 | 54 | 292 | 2.0 | 8.0 | 0.00 | 0.00 | 0.00 | 95 | 1017.1 |
| 20260831090749 | 54 | 264 | 1.0 | 9.0 | 0.00 | 0.00 | 0.00 | 94 | 1017.1 |
| 20260831090249 | 54 | 299 | 4.0 | 9.0 | 0.00 | 0.00 | 0.00 | 94 | 1017.2 |
| 20260831085249 | 54 | 265 | 3.0 | 6.0 | 0.00 | 0.00 | 0.00 | 94 | 1017.1 |
| 20260831084748 | 54 | 274 | 1.0 | 8.0 | 0.00 | 0.00 | 0.00 | 94 | 1017.2 |
| 20260831084249 | 54 | 304 | 2.0 | 8.0 | 0.00 | 0.00 | 0.00 | 93 | 1017.2 |
| 20260831083748 | 54 | 262 | 0.0 | 5.0 | 0.00 | 0.00 | 0.00 | 93 | 1017.2 |
| 20260831083248 | 55 | 255 | 4.0 | 5.0 | 0.00 | 0.00 | 0.00 | 93 | 1017.3 |
| 20260831082748 | 55 | 249 | 3.0 | 6.0 | 0.00 | 0.00 | 0.00 | 93 | 1017.3 |
| 20260831082248 | 55 | 314 | 1.0 | 6.0 | 0.00 | 0.00 | 0.00 | 93 | 1017.4 |
| 20260831081748 | 55 | 310 | 1.0 | 4.0 | 0.00 | 0.00 | 0.00 | 94 | 1017.5 |
| 20260831081248 | 55 | 290 | 1.0 | 3.0 | 0.00 | 0.00 | 0.00 | 94 | 1017.6 |
| 20260831080748 | 55 | 274 | 2.0 | 3.0 | 0.00 | 0.00 | 0.00 | 94 | 1017.6 |
| 20260831080248 | 54 | 257 | 0.0 | 2.0 | 0.00 | 0.00 | 0.00 | 94 | 1017.6 |
| 20260831075248 | 54 | 301 | 0.0 | 1.0 | 0.00 | 0.00 | 0.00 | 93 | 1017.7 |
| 20260831074747 | 54 | 301 | 0.0 | 1.0 | 0.00 | 0.00 | 0.00 | 93 | 1017.7 |
| 20260831074247 | 54 | 242 | 0.0 | 0.0 | 0.00 | 0.00 | 0.00 | 93 | 1017.8 |
| 20260831073747 | 55 | 295 | 0.0 | 1.0 | 0.00 | 0.00 | 0.00 | 93 | 1017.8 |
| 20260831073248 | 55 | 290 | 0.0 | 2.0 | 0.00 | 0.00 | 0.00 | 93 | 1017.8 |
| 20260831072247 | 55 | 278 | 0.0 | 1.0 | 0.00 | 0.00 | 0.00 | 92 | 1017.9 |
| 20260831071747 | 55 | 278 | 0.0 | 1.0 | 0.00 | 0.00 | 0.00 | 92 | 1017.9 |
| 20260831071247 | 55 | 278 | 0.0 | 4.0 | 0.00 | 0.00 | 0.00 | 92 | 1017.9 |
| 20260831070746 | 55 | 278 | 0.0 | 4.0 | 0.00 | 0.00 | 0.00 | 92 | 1018.0 |
| 20260831070246 | 55 | 302 | 2.0 | 4.0 | 0.00 | 0.00 | 0.00 | 92 | 1018.0 |
| 20260831065747 | 55 | 272 | 0.0 | 3.0 | 0.00 | 0.00 | 0.00 | 92 | 1018.0 |
| 20260831065246 | 55 | 267 | 0.0 | 3.0 | 0.00 | 0.00 | 0.00 | 91 | 1018.0 |
| 20260831064746 | 56 | 266 | 0.0 | 1.0 | 0.00 | 0.00 | 0.00 | 91 | 1018.2 |
| 20260831064246 | 56 | 266 | 0.0 | 2.0 | 0.00 | 0.00 | 0.00 | 91 | 1018.3 |
| 20260831063746 | 56 | 266 | 0.0 | 2.0 | 0.00 | 0.00 | 0.00 | 91 | 1018.3 |
| 20260831063246 | 56 | 252 | 0.0 | 2.0 | 0.00 | 0.00 | 0.00 | 91 | 1018.4 |
| 20260831062746 | 56 | 252 | 0.0 | 4.0 | 0.00 | 0.00 | 0.00 | 91 | 1018.4 |
| 20260831062246 | 56 | 252 | 2.0 | 5.0 | 0.00 | 0.00 | 0.00 | 91 | 1018.4 |
| 20260831061746 | 56 | 269 | 2.0 | 5.0 | 0.00 | 0.00 | 0.00 | 91 | 1018.4 |
| 20260831061246 | 56 | 266 | 2.0 | 4.0 | 0.00 | 0.00 | 0.00 | 91 | 1018.4 |
| 20260831060746 | 56 | 250 | 1.0 | 6.0 | 0.00 | 0.00 | 0.00 | 90 | 1018.4 |
| 20260831060245 | 56 | 268 | 2.0 | 6.0 | 0.00 | 0.00 | 0.00 | 91 | 1018.5 |
| 20260831055745 | 56 | 264 | 3.0 | 5.0 | 0.00 | 0.00 | 0.00 | 90 | 1018.4 |
| 20260831055245 | 56 | 283 | 3.0 | 5.0 | 0.00 | 0.00 | 0.00 | 90 | 1018.4 |
| 20260831054745 | 56 | 266 | 2.0 | 5.0 | 0.00 | 0.00 | 0.00 | 90 | 1018.4 |
| 20260831054245 | 56 | 264 | 3.0 | 5.0 | 0.00 | 0.00 | 0.00 | 90 | 1018.5 |
| 20260831053744 | 56 | 262 | 2.0 | 4.0 | 0.00 | 0.00 | 0.00 | 90 | 1018.5 |
| 20260831052744 | 57 | 267 | 3.0 | 5.0 | 0.00 | 0.00 | 0.00 | 90 | 1018.6 |
| 20260831052244 | 57 | 291 | 3.0 | 7.0 | 0.00 | 0.00 | 0.00 | 90 | 1018.7 |
| 20260831051744 | 57 | 274 | 3.0 | 7.0 | 0.00 | 0.00 | 0.00 | 89 | 1018.7 |
| 20260831051244 | 57 | 271 | 4.0 | 5.0 | 0.00 | 0.00 | 0.00 | 89 | 1018.8 |
| 20260831050244 | 57 | 281 | 1.0 | 6.0 | 0.00 | 0.00 | 0.00 | 89 | 1018.8 |
| 20260831045244 | 57 | 264 | 3.0 | 6.0 | 0.00 | 0.00 | 0.00 | 89 | 1018.8 |
| 20260831044743 | 57 | 266 | 3.0 | 6.0 | 0.00 | 0.00 | 0.00 | 89 | 1018.9 |
| 20260831044243 | 57 | 272 | 4.0 | 7.0 | 0.00 | 0.00 | 0.00 | 89 | 1018.9 |
| 20260831043743 | 57 | 271 | 2.0 | 7.0 | 0.00 | 0.00 | 0.00 | 89 | 1018.9 |
| 20260831043243 | 57 | 280 | 4.0 | 7.0 | 0.00 | 0.00 | 0.00 | 88 | 1018.9 |
| 20260831042743 | 58 | 262 | 4.0 | 7.0 | 0.00 | 0.00 | 0.00 | 88 | 1019.0 |
| 20260831042243 | 58 | 259 | 5.0 | 6.0 | 0.00 | 0.00 | 0.00 | 87 | 1019.1 |
| 20260831041743 | 58 | 283 | 4.0 | 5.0 | 0.00 | 0.00 | 0.00 | 87 | 1019.2 |
| 20260831041243 | 58 | 272 | 2.0 | 6.0 | 0.00 | 0.00 | 0.00 | 86 | 1019.1 |
| 20260831040742 | 59 | 231 | 1.0 | 6.0 | 0.00 | 0.00 | 0.00 | 86 | 1019.1 |
| 20260831040242 | 59 | 279 | 5.0 | 6.0 | 0.00 | 0.00 | 0.00 | 85 | 1019.1 |
| 20260831035743 | 59 | 279 | 3.0 | 6.0 | 0.00 | 0.00 | 0.00 | 85 | 1019.0 |
| 20260831035242 | 59 | 282 | 3.0 | 5.0 | 0.00 | 0.00 | 0.00 | 85 | 1019.0 |
| 20260831034743 | 60 | 255 | 1.0 | 4.0 | 0.00 | 0.00 | 0.00 | 84 | 1019.1 |
| 20260831034242 | 60 | 282 | 3.0 | 3.0 | 0.00 | 0.00 | 0.00 | 84 | 1019.1 |
| 20260831032241 | 60 | 277 | 0.0 | 0.0 | 0.00 | 0.00 | 0.00 | 83 | 1019.1 |
| 20260831031741 | 60 | 285 | 0.0 | 3.0 | 0.00 | 0.00 | 0.00 | 83 | 1019.1 |
| 20260831031241 | 60 | 266 | 0.0 | 4.0 | 0.00 | 0.00 | 0.00 | 83 | 1019.1 |
| 20260831030741 | 60 | 282 | 0.0 | 4.0 | 0.00 | 0.00 | 0.00 | 83 | 1019.1 |
| 20260831030241 | 60 | 273 | 1.0 | 4.0 | 0.00 | 0.00 | 0.00 | 83 | 1019.0 |
| 20260831025741 | 60 | 264 | 2.0 | 4.0 | 0.00 | 0.00 | 0.00 | 83 | 1018.9 |
| 20260831025241 | 60 | 273 | 0.0 | 4.0 | 0.00 | 0.00 | 0.00 | 83 | 1018.9 |
| 20260831024741 | 60 | 264 | 1.0 | 4.0 | 0.00 | 0.00 | 0.00 | 83 | 1019.0 |
| 20260831024241 | 60 | 311 | 2.0 | 5.0 | 0.00 | 0.00 | 0.00 | 83 | 1018.9 |
| 20260831023740 | 60 | 270 | 2.0 | 5.0 | 0.00 | 0.00 | 0.00 | 83 | 1019.0 |
| 20260831023241 | 60 | 269 | 2.0 | 4.0 | 0.00 | 0.00 | 0.00 | 83 | 1019.1 |
| 20260831022741 | 60 | 274 | 2.0 | 4.0 | 0.00 | 0.00 | 0.00 | 83 | 1019.1 |
| 20260831021741 | 60 | 279 | 2.0 | 6.0 | 0.00 | 0.00 | 0.00 | 82 | 1019.2 |
| 20260831021241 | 61 | 262 | 1.0 | 6.0 | 0.00 | 0.00 | 0.00 | 82 | 1019.3 |
| 20260831020740 | 61 | 281 | 2.0 | 5.0 | 0.00 | 0.00 | 0.00 | 81 | 1019.3 |
| 20260831020240 | 61 | 258 | 1.0 | 6.0 | 0.00 | 0.00 | 0.00 | 81 | 1019.4 |
| 20260831015740 | 61 | 267 | 4.0 | 6.0 | 0.00 | 0.00 | 0.00 | 81 | 1019.3 |
| 20260831015240 | 61 | 281 | 3.0 | 5.0 | 0.00 | 0.00 | 0.00 | 80 | 1019.4 |
| 20260831014739 | 61 | 264 | 3.0 | 6.0 | 0.00 | 0.00 | 0.00 | 80 | 1019.4 |
| 20260831013739 | 62 | 300 | 2.0 | 6.0 | 0.00 | 0.00 | 0.00 | 78 | 1019.4 |
| 20260831013239 | 63 | 275 | 1.0 | 4.0 | 0.00 | 0.00 | 0.00 | 77 | 1019.4 |
| 20260831012739 | 63 | 276 | 1.0 | 5.0 | 0.00 | 0.00 | 0.00 | 76 | 1019.5 |
| 20260831012239 | 63 | 283 | 1.0 | 5.0 | 0.00 | 0.00 | 0.00 | 75 | 1019.5 |
| 20260831011739 | 63 | 287 | 2.0 | 4.0 | 0.00 | 0.00 | 0.00 | 75 | 1019.5 |
| 20260831011239 | 63 | 226 | 0.0 | 4.0 | 0.00 | 0.00 | 0.00 | 76 | 1019.5 |
| 20260831010738 | 62 | 287 | 0.0 | 5.0 | 0.00 | 0.00 | 0.00 | 76 | 1019.7 |
| 20260831010239 | 62 | 245 | 1.0 | 5.0 | 0.00 | 0.00 | 0.00 | 76 | 1019.7 |
| 20260831005239 | 62 | 301 | 3.0 | 5.0 | 0.00 | 0.00 | 0.00 | 76 | 1019.7 |
| 20260831004738 | 62 | 266 | 1.0 | 6.0 | 0.00 | 0.00 | 0.00 | 76 | 1019.7 |
| 20260831004238 | 62 | 320 | 1.0 | 7.0 | 0.00 | 0.00 | 0.00 | 76 | 1019.8 |
| 20260831003738 | 62 | 259 | 3.0 | 8.0 | 0.00 | 0.00 | 0.00 | 76 | 1019.8 |
| 20260831003238 | 62 | 290 | 5.0 | 8.0 | 0.00 | 0.00 | 0.00 | 76 | 1019.8 |
| 20260831002738 | 62 | 279 | 4.0 | 7.0 | 0.00 | 0.00 | 0.00 | 76 | 1019.9 |
| 20260831002237 | 62 | 289 | 3.0 | 7.0 | 0.00 | 0.00 | 0.00 | 76 | 1020.0 |
| 20260831001737 | 62 | 271 | 4.0 | 8.0 | 0.00 | 0.00 | 0.00 | 75 | 1020.1 |
| 20260831000737 | 63 | 271 | 4.0 | 8.0 | 0.00 | 0.00 | 0.00 | 74 | 1020.0 |
| 20260831000237 | 63 | 251 | 1.0 | 8.0 | 0.00 | 0.00 | 0.00 | 74 | 1020.0 |
| 20260830235737 | 63 | 248 | 3.0 | 10.0 | 0.00 | 0.00 | 0.00 | 74 | 1020.0 |
| 20260830235237 | 63 | 281 | 3.0 | 10.0 | 0.00 | 0.00 | 0.00 | 73 | 1020.0 |
| 20260830234737 | 63 | 354 | 4.0 | 9.0 | 0.00 | 0.00 | 0.00 | 73 | 1020.0 |
| 20260830234237 | 63 | 317 | 2.0 | 9.0 | 0.00 | 0.00 | 0.00 | 72 | 1020.0 |
| 20260830233736 | 63 | 339 | 6.0 | 9.0 | 0.00 | 0.00 | 0.00 | 73 | 1020.1 |
| 20260830233237 | 63 | 285 | 5.0 | 9.0 | 0.00 | 0.00 | 0.00 | 72 | 1020.0 |
| 20260830232736 | 63 | 255 | 4.0 | 6.0 | 0.00 | 0.00 | 0.00 | 72 | 1020.1 |
| 20260830231236 | 65 | 281 | 0.0 | 9.0 | 0.00 | 0.00 | 0.00 | 69 | 1020.3 |
| 20260830230736 | 65 | 280 | 2.0 | 7.0 | 0.00 | 0.00 | 0.00 | 68 | 1020.3 |
| 20260830225735 | 66 | 18 | 3.0 | 4.0 | 0.00 | 0.00 | 0.00 | 64 | 1020.2 |
| 20260830225235 | 66 | 94 | 2.0 | 5.0 | 0.00 | 0.00 | 0.00 | 65 | 1020.2 |
| 20260830224735 | 66 | 41 | 2.0 | 6.0 | 0.00 | 0.00 | 0.00 | 66 | 1020.2 |
| 20260830224235 | 65 | 96 | 1.0 | 6.0 | 0.00 | 0.00 | 0.00 | 66 | 1020.2 |
| 20260830223735 | 66 | 113 | 3.0 | 6.0 | 0.00 | 0.00 | 0.00 | 65 | 1020.3 |
| 20260830223235 | 66 | 101 | 3.0 | 6.0 | 0.00 | 0.00 | 0.00 | 65 | 1020.2 |
| 20260830222735 | 66 | 77 | 0.0 | 4.0 | 0.00 | 0.00 | 0.00 | 66 | 1020.3 |
| 20260830222234 | 66 | 91 | 0.0 | 5.0 | 0.00 | 0.00 | 0.00 | 66 | 1020.3 |
| 20260830221735 | 66 | 48 | 2.0 | 5.0 | 0.00 | 0.00 | 0.00 | 64 | 1020.4 |
| 20260830221235 | 67 | 60 | 3.0 | 5.0 | 0.00 | 0.00 | 0.00 | 62 | 1020.4 |
| 20260830220734 | 66 | 51 | 2.0 | 5.0 | 0.00 | 0.00 | 0.00 | 66 | 1020.6 |
| 20260830220234 | 66 | 68 | 2.0 | 6.0 | 0.00 | 0.00 | 0.00 | 66 | 1020.6 |
| 20260830215734 | 66 | 88 | 4.0 | 8.0 | 0.00 | 0.00 | 0.00 | 65 | 1020.6 |
| 20260830215234 | 67 | 91 | 4.0 | 8.0 | 0.00 | 0.00 | 0.00 | 64 | 1020.7 |
| 20260830214734 | 67 | 84 | 4.0 | 8.0 | 0.00 | 0.00 | 0.00 | 64 | 1020.7 |
| 20260830214234 | 67 | 98 | 3.0 | 7.0 | 0.00 | 0.00 | 0.00 | 63 | 1020.7 |
| 20260830213734 | 67 | 103 | 4.0 | 9.0 | 0.00 | 0.00 | 0.00 | 63 | 1020.8 |
| 20260830213233 | 68 | 109 | 2.0 | 9.0 | 0.00 | 0.00 | 0.00 | 63 | 1020.7 |
| 20260830212733 | 68 | 104 | 6.0 | 10.0 | 0.00 | 0.00 | 0.00 | 63 | 1020.7 |